Weather History for KGWR - September, 2012

Change the Weather History Date:

Wednesday, September 12, 2012

  Actual Average (KP67) Record (KP67)
Temperature  
Mean Temperature 63 °F -  
Max Temperature 73 °F 73 °F 80 °F (1997)
Min Temperature 51 °F 48 °F 46 °F (1996)
Degree Days  
Heating Degree Days 2    
Growing Degree Days 13 (Base 50)    
Moisture  
Dew Point 31 °F    
Average Humidity 33    
Maximum Humidity 51    
Minimum Humidity 18    
Precipitation  
Precipitation 0.00 in - - ()
Sea Level Pressure  
Sea Level Pressure 30.16 in    
Wind  
Wind Speed 9 mph (WNW)    
Max Wind Speed 22 mph    
Max Gust Speed 30 mph    
Visibility 10 miles    
Events      
Averages and records for this station are not official NWS values.
T = Trace of Precipitation, MM = Missing Value Source: NWS Daily Summary

Daily Weather History Graph

Daily Weather History Graph

Search for Another Location

Airport or City:

Trip Planner

Search our weather history database for the weather conditions in past years. The results will help you decide how hot, cold, wet, or windy it might be!

Date:

Astronomy

Sep. 12, 2012 Rise Set
Actual Time 7:05 AM CDT 7:46 PM CDT
Civil Twilight 6:35 AM CDT 8:17 PM CDT
Nautical Twilight 5:59 AM CDT 8:52 PM CDT
Astronomical Twilight 5:21 AM CDT 9:30 PM CDT
Moon 3:13 AM CDT (9/12) 5:43 PM CDT (9/12)
Length of Visible Light 13h 41m
Length of Day
12h 41m
Waning Crescent, 13% of the Moon is Illuminated
Sep 12
Waning Crescent
Sep 15
New
Sep 22
First Quarter
Sep 29
Full
Oct 8
Last Quarter

Hourly Weather History & Observations

Time (CDT) Temp. Dew Point Humidity Pressure Visibility Wind Dir Wind Speed Gust Speed Precip Events Conditions
12:35 AM 59.0 °F 32.0 °F 36% 29.99 in 10.0 mi NW 4.6 mph - 0.00 in   Clear
12:55 AM 57.2 °F 33.8 °F 41% 30.01 in 10.0 mi WSW 5.8 mph - 0.00 in   Clear
1:15 AM 55.4 °F 33.8 °F 44% 30.03 in 10.0 mi WSW 8.1 mph - 0.00 in   Clear
1:35 AM 55.4 °F 35.6 °F 47% 30.03 in 10.0 mi West 8.1 mph - 0.00 in   Partly Cloudy
1:55 AM 55.4 °F 33.8 °F 44% 30.03 in 10.0 mi West 8.1 mph - 0.00 in   Overcast
2:15 AM 55.4 °F 33.8 °F 44% 30.04 in 10.0 mi WSW 8.1 mph - 0.00 in   Mostly Cloudy
2:35 AM 55.4 °F 35.6 °F 47% 30.04 in 10.0 mi West 8.1 mph - 0.00 in   Partly Cloudy
2:55 AM 55.4 °F 35.6 °F 47% 30.06 in 10.0 mi West 9.2 mph - 0.00 in   Clear
3:15 AM 55.4 °F 35.6 °F 47% 30.06 in 10.0 mi WSW 9.2 mph - 0.00 in   Clear
3:55 AM 53.6 °F 35.6 °F 51% 30.07 in 10.0 mi West 8.1 mph - 0.00 in   Clear
4:15 AM 55.4 °F 37.4 °F 51% 30.08 in 10.0 mi West 8.1 mph - 0.00 in   Clear
4:35 AM 55.4 °F 35.6 °F 47% 30.08 in 10.0 mi West 9.2 mph - 0.00 in   Clear
4:55 AM 55.4 °F 35.6 °F 47% 30.09 in 10.0 mi West 8.1 mph - 0.00 in   Clear
5:15 AM 55.4 °F 35.6 °F 47% 30.09 in 10.0 mi West 6.9 mph - 0.00 in   Clear
5:35 AM 55.4 °F 33.8 °F 44% 30.09 in 10.0 mi West 5.8 mph - 0.00 in   Clear
5:55 AM 53.6 °F 33.8 °F 47% 30.10 in 10.0 mi WNW 6.9 mph - 0.00 in   Clear
6:15 AM 55.4 °F 33.8 °F 44% 30.10 in 10.0 mi WNW 5.8 mph - 0.00 in   Clear
6:35 AM 53.6 °F 33.8 °F 47% 30.11 in 10.0 mi WNW 5.8 mph - 0.00 in   Clear
6:55 AM 53.6 °F 33.8 °F 47% 30.11 in 10.0 mi WNW 6.9 mph - 0.00 in   Clear
7:15 AM 53.6 °F 33.8 °F 47% 30.12 in 10.0 mi WNW 8.1 mph - 0.00 in   Clear
7:35 AM 53.6 °F 33.8 °F 47% 30.12 in 10.0 mi WNW 8.1 mph - 0.00 in   Clear
7:55 AM 55.4 °F 33.8 °F 44% 30.13 in 10.0 mi WNW 10.4 mph - 0.00 in   Clear
8:15 AM 55.4 °F 33.8 °F 44% 30.13 in 10.0 mi WNW 9.2 mph - 0.00 in   Clear
8:35 AM 55.4 °F 33.8 °F 44% 30.14 in 10.0 mi WNW 9.2 mph - 0.00 in   Clear
8:55 AM 55.4 °F 33.8 °F 44% 30.15 in 10.0 mi West 6.9 mph - 0.00 in   Clear
9:15 AM 57.2 °F 33.8 °F 41% 30.17 in 10.0 mi West 8.1 mph - 0.00 in   Clear
9:35 AM 60.8 °F 33.8 °F 36% 30.18 in 10.0 mi West 8.1 mph - 0.00 in   Clear
9:55 AM 60.8 °F 32.0 °F 34% 30.18 in 10.0 mi West 8.1 mph - 0.00 in   Clear
10:15 AM 62.6 °F 32.0 °F 32% 30.19 in 10.0 mi WNW 10.4 mph - 0.00 in   Clear
10:35 AM 64.4 °F 32.0 °F 30% 30.20 in 10.0 mi West 10.4 mph - 0.00 in   Clear
10:55 AM 64.4 °F 32.0 °F 30% 30.20 in 10.0 mi West 10.4 mph - 0.00 in   Clear
11:15 AM 66.2 °F 32.0 °F 28% 30.20 in 10.0 mi West 9.2 mph - 0.00 in   Clear
11:35 AM 68.0 °F 32.0 °F 26% 30.21 in 10.0 mi WNW 11.5 mph 16.1 mph 0.00 in   Clear
11:55 AM 69.8 °F 30.2 °F 23% 30.21 in 10.0 mi WNW 11.5 mph 17.3 mph 0.00 in   Clear
12:15 PM 69.8 °F 30.2 °F 23% 30.21 in 10.0 mi West 11.5 mph - 0.00 in   Clear
12:35 PM 69.8 °F 30.2 °F 23% 30.21 in 10.0 mi West 13.8 mph 19.6 mph 0.00 in   Clear
12:55 PM 69.8 °F 28.4 °F 21% 30.20 in 10.0 mi West 15.0 mph 23.0 mph 0.00 in   Clear
1:15 PM 69.8 °F 30.2 °F 23% 30.20 in 10.0 mi West 13.8 mph 23.0 mph 0.00 in   Clear
1:35 PM 69.8 °F 30.2 °F 23% 30.20 in 10.0 mi West 12.7 mph 26.5 mph 0.00 in   Clear
1:55 PM 71.6 °F 28.4 °F 20% 30.20 in 10.0 mi West 16.1 mph 27.6 mph 0.00 in   Clear
2:15 PM 71.6 °F 30.2 °F 22% 30.19 in 10.0 mi WNW 19.6 mph 26.5 mph 0.00 in   Clear
2:35 PM 71.6 °F 26.6 °F 19% 30.19 in 10.0 mi West 20.7 mph 28.8 mph 0.00 in   Clear
2:55 PM 71.6 °F 28.4 °F 20% 30.18 in 10.0 mi West 21.9 mph 28.8 mph 0.00 in   Clear
3:15 PM 73.4 °F 28.4 °F 19% 30.17 in 10.0 mi West 16.1 mph 23.0 mph 0.00 in   Clear
3:35 PM 73.4 °F 28.4 °F 19% 30.17 in 10.0 mi WNW 20.7 mph 26.5 mph 0.00 in   Clear
4:15 PM 73.4 °F 26.6 °F 18% 30.16 in 10.0 mi West 21.9 mph 29.9 mph 0.00 in   Clear
4:55 PM 73.4 °F 26.6 °F 18% 30.17 in 10.0 mi WNW 18.4 mph 28.8 mph 0.00 in   Clear
5:15 PM 73.4 °F 26.6 °F 18% 30.18 in 10.0 mi WNW 17.3 mph 25.3 mph 0.00 in   Clear
5:35 PM 71.6 °F 28.4 °F 20% 30.18 in 10.0 mi WNW 13.8 mph 23.0 mph 0.00 in   Clear
5:55 PM 71.6 °F 28.4 °F 20% 30.18 in 10.0 mi WNW 17.3 mph 24.2 mph 0.00 in   Clear
6:15 PM 71.6 °F 28.4 °F 20% 30.18 in 10.0 mi WNW 17.3 mph 23.0 mph 0.00 in   Clear
6:35 PM 71.6 °F 28.4 °F 20% 30.19 in 10.0 mi NW 17.3 mph 27.6 mph 0.00 in   Clear
6:55 PM 71.6 °F 28.4 °F 20% 30.20 in 10.0 mi WNW 16.1 mph 23.0 mph 0.00 in   Clear
7:15 PM 69.8 °F 28.4 °F 21% 30.20 in 10.0 mi WNW 17.3 mph 20.7 mph 0.00 in   Clear
7:35 PM 68.0 °F 28.4 °F 23% 30.21 in 10.0 mi NW 12.7 mph 18.4 mph 0.00 in   Clear
7:55 PM 64.4 °F 28.4 °F 26% 30.22 in 10.0 mi NW 11.5 mph - 0.00 in   Clear
8:15 PM 62.6 °F 28.4 °F 27% 30.23 in 10.0 mi WNW 10.4 mph - 0.00 in   Clear
8:35 PM 60.8 °F 26.6 °F 27% 30.24 in 10.0 mi WNW 9.2 mph - 0.00 in   Clear
8:55 PM 57.2 °F 28.4 °F 33% 30.24 in 10.0 mi NW 8.1 mph - 0.00 in   Clear
9:15 PM 55.4 °F 26.6 °F 33% 30.25 in 10.0 mi WNW 6.9 mph - 0.00 in   Clear
9:35 PM 57.2 °F 26.6 °F 31% 30.25 in 10.0 mi WNW 8.1 mph - 0.00 in   Clear
9:55 PM 55.4 °F 26.6 °F 33% 30.26 in 10.0 mi WNW 8.1 mph - 0.00 in   Clear
10:15 PM 55.4 °F 26.6 °F 33% 30.26 in 10.0 mi NW 8.1 mph - 0.00 in   Clear
10:35 PM 55.4 °F 26.6 °F 33% 30.26 in 10.0 mi NW 9.2 mph - 0.00 in   Clear
10:55 PM 53.6 °F 28.4 °F 38% 30.27 in 10.0 mi NW 9.2 mph - 0.00 in   Clear
11:15 PM 53.6 °F 26.6 °F 35% 30.27 in 10.0 mi NW 9.2 mph - 0.00 in   Clear
11:35 PM 53.6 °F 26.6 °F 35% 30.27 in 10.0 mi NW 8.1 mph - 0.00 in   Clear
11:55 PM 51.8 °F 26.6 °F 38% 30.27 in 10.0 mi NW 5.8 mph - 0.00 in   Clear